Home > Weather > Reutte > Past weeks

Flag for Austria Past Weather in Reutte, Tyrol, Austria — Yesterday and Last 2 Weeks

Now
60 °F

Cool.


Feels Like: 60 °F
Forecast: 53 / 78 °F
Wind: 1 mph from Southeast

Location: Landeck

Current Time: Aug 30, 2016 at 7:14:28 AM

Latest Report: Aug 30, 2016 at 6:00 AM


Visibility: N/A

Pressure: 30.16 "Hg (27.26 "Hg at 856m altitude)

Humidity: 93%

Dew Point: 58 °F

Location of ReutteLocation

Past Weather in Reutte — Graph

°F

Reutte Temperature Yesterday

Maximum temperature yesterday: 70 °F (at 3:00 PM)
Minimum temperature yesterday: 60 °F (at 7:00 AM)
Average temperature yesterday: 64 °F

High & Low Weather Summary for the Past Weeks

 TemperatureHumidityPressure
High90 °F (Aug 26, 3:00 PM)94% (Aug 20, 10:00 PM)30.50 "Hg (Aug 20, 10:00 PM)
Low49 °F (Aug 23, 6:00 AM)25% (Aug 25, 4:00 PM)29.72 "Hg (Aug 18, 4:00 PM)
Average67 °F69%30.06 "Hg
* Reported Aug 15 6:00 AM — Aug 30 6:00 AM, Reutte, Weather by CustomWeather, © 2016

Note: Actual official high and low records may vary slightly from our data, if they occured in-between our weather recording intervals... More about our weather records

Advertising

Reutte Weather History for the Previous 24 Hours

Scroll right to see more
 ConditionsComfort  
Time TempWeatherWind HumidityBarometerVisibility
6:00 AM
Tue, Aug 30
60 °FCool.1 mph93%30.16 "HgN/A
5:00 AM60 °FCool.1 mph93%30.17 "HgN/A
4:00 AM60 °FCool.1 mph92%30.17 "HgN/A
3:00 AM60 °FCool.No wind93%30.16 "HgN/A
2:00 AM60 °FCool.1 mph94%30.17 "HgN/A
1:00 AM60 °FCool.3 mph93%30.18 "HgN/A
12:00 AM61 °FCool.2 mph93%30.18 "HgN/A
11:00 PM
Mon, Aug 29
61 °FCool.No wind93%30.17 "HgN/A
10:00 PM62 °FCool.1 mph92%30.16 "HgN/A
9:00 PM62 °FCool.1 mph92%30.14 "HgN/A
8:00 PM63 °FMild.1 mph92%30.11 "HgN/A
7:00 PM63 °FMild.1 mph90%30.11 "HgN/A
6:00 PM64 °FFog.2 mph90%30.09 "HgN/A
5:00 PM65 °FFog.1 mph86%30.09 "HgN/A
4:00 PM67 °FMild.1 mph75%30.06 "HgN/A
3:00 PM70 °FMild.1 mph72%30.05 "HgN/A
2:00 PM67 °FPassing clouds.17 mph78%30.09 "Hg2 mi
1:00 PM63 °FFog.1 mph88%30.12 "HgN/A
12:00 PM66 °FMild.1 mph77%30.09 "HgN/A
11:00 AM67 °FMild.2 mph73%30.07 "HgN/A
10:00 AM66 °FMild.2 mph70%30.07 "HgN/A
9:00 AM66 °FMild.2 mph72%30.08 "HgN/A
8:00 AM62 °FCool.3 mph79%30.11 "HgN/A
7:00 AM60 °FCool.1 mph81%30.12 "HgN/A
Weather by CustomWeather, © 2016

See weather overviewHow to use our weather pages